Regional Weather Roundup
Issued by NWS

Home | Current Version | Previous Version | Graphics & Text | Print | Product List | Glossary On
Versions: 1 2 3 4 5 6 7 8 9 10 11 12 13 14 15 16 17 18 19 20 21 22 23 24 25 26 27 28 29 30 31 32 33 34 35 36 37 38 39 40 41 42 43 44 45 46 47 48 49 50
000
ASUS43 KMPX 181910
RWRMN
WEATHER ROUNDUP FOR MINNESOTA
NATIONAL WEATHER SERVICE TWIN CITIES/CHANHASSEN MN
200 PM CDT WED OCT 18 2017


NOTE: "FAIR" INDICATES FEW OR NO CLOUDS BELOW 12,000 FEET WITH NO
SIGNIFICANT WEATHER AND/OR OBSTRUCTIONS TO VISIBILITY. N/A MEANS
CURRENT SKY AND/OR WEATHER CONDITIONS ARE NOT AVAILABLE.

MNZ060>063-068>070-182000-
   Twin Cities Metro

CITY           SKY/WX    TMP DP  RH WIND       PRES   REMARKS
TWIN CITIES    PTSUNNY   67  46  47 W10       29.85R
ST PAUL        MOSUNNY   67  47  48 W12       29.85R
CRYSTAL        MOSUNNY   67  43  41 W9        29.83R
BLAINE         PTSUNNY   66  46  48 W14       29.83R
LAKEVILLE      PTSUNNY   66  46  48 W8        29.86R
EDEN PRAIRIE   CLOUDY    68  46  45 W9        29.84S
SOUTH ST PAUL  PTSUNNY   67  46  46 W12       29.84S
LAKE ELMO      FAIR      68  46  45 W10       29.84S
$$
MNZ001>005-007-008-013>017-022>024-027-028-182000-
   Northwest Minnesota

CITY           SKY/WX    TMP DP  RH WIND       PRES   REMARKS
BEMIDJI        SUNNY     58  20  23 W29G40    29.77R
HALLOCK        SUNNY     61   0   8 W32G40    29.70S
ROSEAU         SUNNY     59  16  18 W18G32    29.67R
WARROAD        SUNNY     57  25  28 W26G39    29.65S
THIEF RVR FALL SUNNY     59  16  18 W23G41    29.77S
CROOKSTON      SUNNY     61  18  18 W25G37    29.79S
FOSSTON        SUNNY     61  16  17 W28       29.80S
DETROIT LAKES  SUNNY     59  25  27 W17G24    29.84F
MOORHEAD       CLOUDY    63  16  16 W25G33    29.86F
PARK RAPIDS    SUNNY     62  23  22 W20G30    29.80S
MAHNOMEN       FAIR      60  20  21 W29G35    29.81F
$$
MNZ006-009>011-018-025>026-182000-
   North Central Minnesota

CITY           SKY/WX    TMP DP  RH WIND       PRES   REMARKS
BAUDETTE       SUNNY     59  20  22 W20G41    29.64S
FLAG ISLAND    SUNNY     55  21  26 W25G41    29.57R
INTL FALLS     SUNNY     60  19  20 W21G33    29.63S
WASKISH        MOSUNNY   55  36  47 W17G24    29.71F
BIG FORK       SUNNY     63  14  15 W13G23    29.69F
LONGVILLE      SUNNY     64  16  15 W15G28    29.77S
GRAND RAPIDS   CLOUDY    63  19  18 W18G26    29.75S
CRANE LAKE     CLOUDY    63  21  20 SW12G25   29.64S
ORR            CLOUDY    64  19  17 W15G25    29.63F
COOK           CLOUDY    63  28  27 W20G28    29.67R
WALKER         FAIR      60  17  18 W20G33    29.76F
$$
MNZ012-019>021-037-182000-
   Northeast Minnesota

CITY           SKY/WX    TMP DP  RH WIND       PRES   REMARKS
DULUTH         CLOUDY    66  40  38 W20G29    29.70S
ELY            SUNNY     64  34  32 W16G22    29.62F
HIBBING        CLOUDY    65  29  25 W15G26    29.68F
EVELETH        SUNNY     65  15  14 W14G23    29.68F
DULUTH HARBOR  MOSUNNY   66  48  52 SW17G25   29.69S
TWO HARBORS    CLOUDY    72  46  40 SW18      29.65S
GRAND MARAIS     N/A     56  50  80 W9        29.60F
G MARAIS ARPRT CLOUDY    59  43  55 S10       29.61F
$$
MNZ029>031-032-039>041-046>048-054>057-064-182000-
   West Central Minnesota

CITY           SKY/WX    TMP DP  RH WIND       PRES   REMARKS
FERGUS FALLS   CLOUDY    57  27  30 NW15      29.88F
WHEATON        CLOUDY    57  18  21 NW9G18    29.94R
MORRIS         MOSUNNY   64  28  25 NW20G25   29.89S
ALEXANDRIA     CLOUDY    63  23  21 NW15G26   29.88S
ELBOW LAKE     FAIR      56  26  30 W15G22    29.89F
WADENA         MOSUNNY   59  25  27 W16       29.83F
GLENWOOD       SUNNY     64  25  22 NW22G31   29.88R
APPLETON       SUNNY     66  23  19 NW15G22   29.90R
BENSON         SUNNY     66  25  20 N20G26    29.90S
ORTONVILLE     SUNNY     64  28  25 NW16G23   29.92R
MADISON        SUNNY     68  34  28 NW18      29.92R
WILLMAR        FAIR      68  34  28 NW17G23   29.89S
$$
MNZ033>034-036-042>043-049>051-058-059-182000-
   Central Minnesota

CITY           SKY/WX    TMP DP  RH WIND       PRES   REMARKS
ST CLOUD       SUNNY     69  35  28 NW18G25   29.82S
SAUK CENTRE    FAIR      64  31  28 NW18G25   29.85F
PAYNESVILLE    SUNNY     67  33  28 NW14      29.86F
AITKIN         SUNNY     64  27  24 W14G25    29.76R
PINE RIVER     SUNNY     61  27  27 W8G21     29.83S
BRAINERD       SUNNY     63  26  24 W20G29    29.80S
STAPLES        MOSUNNY   61  23  23 W16G25    29.83S
LONG PRAIRIE   FAIR      63  32  31 W15G23    29.84F
LITTLE FALLS   SUNNY     64   9  11 W18G29    29.82F
LITCHFIELD     SUNNY     70  34  26 NW14G25   29.87S
BUFFALO        CLOUDY    70  37  30 W9G17     29.85S
MAPLE LAKE     SUNNY     71  41  34 NW18G24   29.85S
HUTCHINSON     SUNNY     72  35  25 NW12G25   29.87S
$$
MNZ037-044-045-052-053-182000-
   East Central Minnesota

CITY           SKY/WX    TMP DP  RH WIND       PRES   REMARKS
PRINCETON      CLOUDY    72  37  28 W14G26    29.81F
MORA           CLOUDY    66  36  32 NW13G22   29.80F
CAMBRIDGE      MOSUNNY   70  50  49 SW9       29.81S
RUSH CITY      CLOUDY    66  46  47 SW8       29.80F
MOOSE LAKE     CLOUDY    68  41  37 W9        29.73S
HINCKLEY       FAIR      66  46  48 SW10      29.78S
CLOQUET        CLOUDY    66  34  30 W13G22    29.72S
MCGREGOR       SUNNY     66  32  28 W10G21    29.75S
$$
MNZ071>073-080-081-089-090-097-098-182000-
   Southwest Minnesota

CITY           SKY/WX    TMP DP  RH WIND       PRES   REMARKS
MONTEVIDEO     SUNNY     72  32  23 N15G23    29.89F
GRANITE FALLS  SUNNY     70  35  27 N12G22    29.91S
CANBY          SUNNY     69  32  25 NW12G18   29.93R
MARSHALL       SUNNY     69  32  25 NW17      29.91R
REDWOOD FALLS  SUNNY     70  30  22 NW14      29.89R
OLIVIA         SUNNY     70  36  28 N18       29.88R
PIPESTONE      SUNNY     72  30  21 N9G20     29.92S
WORTHINGTON    SUNNY     70  34  26 N17       29.93R
JACKSON        SUNNY     70  37  30 N14G21    29.92S
TRACY          SUNNY     70  35  27 N13       29.91S
SLAYTON        SUNNY     69  33  26 N16G25    29.93R
$$
MNZ065>067-074>077-082>085-091>093-182000-
   South Central Minnesota

CITY           SKY/WX    TMP DP  RH WIND       PRES   REMARKS
MANKATO        MOSUNNY   69  42  37 NW16      29.88S
NEW ULM        CLOUDY    72  36  26 NW14      29.88S
ST JAMES       MOSUNNY   72  37  28 NW14G25   29.90S
FAIRMONT       MOSUNNY   68  44  42 NW10      29.91R
GLENCOE        CLOUDY    71  40  31 W12G17    29.86R
FARIBAULT      MOSUNNY   70  48  46 SW15      29.88R
OWATONNA       MOSUNNY   70  48  46 W16       29.88R
WASECA         MOSUNNY   72  46  40 W14G21    29.89S
$$
MNZ078>079-086>088-094>096-182000-
   Southeast Minnesota

CITY           SKY/WX    TMP DP  RH WIND       PRES   REMARKS
ROCHESTER      MOSUNNY   68  50  52 SW21      29.86S
RED WING       MOSUNNY   72  43  35 W16       29.82R
STANTON        MOSUNNY   68  47  47 W16       29.85R
DODGE CENTER   MOSUNNY   70  46  43 SW18G25   29.86F
WINONA         SUNNY     73  46  38 SW8G20    29.85R
AUSTIN         CLOUDY    70  48  46 S15       29.87F
PRESTON        SUNNY     70  47  43 SW17G24   29.89R
$$
ABBREVIATIONS USED IN REMARKS
   TC - TEMPERATURES IN CELSIUS
  WCI - WIND CHILL INDEX
   HX - HEAT INDEX
  VSB - VISIBILITY
$$




USA.gov is the U.S. government's official web portal to all federal, state and local government web resources and services.